sat.trackr.live / text

‹ back to catalog

HELLAS-SAT 2

NORAD 27811 · 2003-020A

PAYLOAD ACTIVE UNKNOWN

§ Identity

Operator
Country
GREC
Launch date
2003-05-13
Launch site
AFETR
Launch vehicle
Mass (kg)
RCS (m²)
15.85

Purposes: comms

External: N2YO · Heavens-Above · Gunter

§ Orbital elements

Epoch: 2026-09-19T06:39:34.585632Z

Period
1,436.08 min
Inclination
7.5821°
Eccentricity
0.0007848
Mean motion
1.00272908 rev/d
Perigee alt
35,753.2 km
Apogee alt
35,819.4 km
Semi-major
42,164.4 km
B*
0.0000e+0
RAAN
66.7203°
Arg perigee
141.2434°
Mean anomaly
240.1702°
Rev number
4,379

§ Raw data

HELLAS-SAT 21 27811U 03020A   26262.27748363 -.00000086  00000+0  00000+0 0  99952 27811   7.5821  66.7203 0007848 141.2434 240.1702  1.00272908 43792

JSON: /api/v1/satellites/27811 · /tle

For live sub-satellite position, see the globe view (requires WebGL).

§ Visibility from observer

Set your observer location to see the next 7 days of passes ≥ 10°. The values pass through the URL so the page stays shareable.

No JS? Fill the form by hand. The geolocation button needs JavaScript.